Home   Weather   Thousand Oaks   Past weeks

Flag for USA Past Weather in Thousand Oaks, California, USA — Yesterday and Last 2 Weeks

Now
52 °F

Passing clouds.


Feels Like: 48 °F
Forecast: 45 / 58 °F
Wind: 13 mph from West

Location: Camarillo Airport

Current Time: Jan 20, 2017 at 10:50:38 pm

Latest Report: Jan 20, 2017 at 9:55 pm


Visibility: 10 mi

Pressure: 29.61 "Hg

Humidity: 75%

Dew Point: 44 °F

Location of Thousand OaksLocation

Past Weather in Thousand Oaks — Graph

°F

Thousand Oaks Temperature Yesterday

Maximum temperature yesterday: 61 °F (at 11:55 am)
Minimum temperature yesterday: 52 °F (at 12:11 am)
Average temperature yesterday: 55 °F

High & Low Weather Summary for the Past Weeks

 TemperatureHumidityPressure
High69 °F (Jan 8, 10:55 am)100% (Jan 11, 5:05 am)30.24 "Hg (Jan 11, 5:05 am)
Low40 °F (Jan 13, 5:55 am)28% (Jan 6, 2:55 pm)29.41 "Hg (Jan 20, 1:38 pm)
Average55 °F82%30.03 "Hg
* Reported Jan 5 8:55 pm — Jan 20 8:55 pm, Thousand Oaks, Weather by CustomWeather, © 2017

Note: Actual official high and low records may vary slightly from our data, if they occured in-between our weather recording intervals... More about our weather records

Advertising

Thousand Oaks Weather History for the Previous 24 Hours

Scroll right to see more
 ConditionsComfort  
Time TempWeatherWind HumidityBarometerVisibility
8:55 pm
Fri, Jan 20
53 °FOvercast.17 mph74%29.59 "Hg10 mi
7:55 pm53 °FPassing clouds.15 mph72%29.56 "Hg10 mi
6:55 pm54 °FPassing clouds.17 mph74%29.52 "Hg10 mi
6:31 pm53 °FPassing clouds.13 mph80%29.50 "Hg10 mi
6:22 pm53 °FPassing clouds.16 mph80%29.49 "Hg10 mi
5:55 pm54 °FPartly cloudy.13 mph80%29.51 "Hg10 mi
4:55 pm54 °FPassing clouds.22 mph77%29.49 "Hg10 mi
3:55 pm56 °FSunny.29 mph67%29.46 "Hg10 mi
2:55 pm57 °FPassing clouds.18 mph67%29.46 "Hg10 mi
1:55 pm59 °FPassing clouds.18 mph84%29.43 "Hg10 mi
1:38 pm57 °FLight rain. Mostly cloudy.14 mph87%29.41 "Hg7 mi
12:55 pm58 °FBroken clouds.21 mph81%29.46 "Hg10 mi
11:55 am55 °FMostly cloudy.14 mph93%29.50 "Hg8 mi
11:31 am54 °FHeavy rain. Fog.18 mph93%29.51 "Hg1 mi
10:55 am56 °FHeavy rain. Fog.18 mph93%29.55 "Hg2 mi
10:35 am56 °FRain. Fog.25 mph93%29.52 "Hg2 mi
10:23 am56 °FHeavy rain. Fog.23 mph93%29.54 "Hg1 mi
9:55 am56 °FRain. Fog.20 mph87%29.58 "Hg2 mi
9:31 am55 °FMostly cloudy.18 mph87%29.57 "Hg9 mi
9:13 am53 °FLight rain. Fog.14 mph93%29.60 "Hg2 mi
8:55 am53 °FRain. Fog.12 mph89%29.63 "Hg1 mi
8:31 am52 °FRain. Fog.7 mph93%29.65 "Hg2 mi
8:06 am53 °FRain. Fog.8 mph93%29.66 "Hg2 mi
7:55 am53 °FLight rain. Fog.9 mph89%29.71 "Hg4 mi
7:41 am53 °FLight rain. Fog.9 mph93%29.67 "Hg5 mi
7:09 am51 °FRain. Fog.9 mph96%29.69 "Hg4 mi
6:55 am51 °FHeavy rain. Fog.8 mph92%29.73 "Hg3 mi
5:55 am51 °FLight rain. Fog.8 mph96%29.76 "Hg6 mi
5:16 am52 °FLight rain. Mostly cloudy.5 mph93%29.75 "Hg7 mi
4:55 am52 °FLight rain. Mostly cloudy.No wind93%29.80 "Hg7 mi
4:18 am52 °FLight rain. Overcast.No wind93%29.77 "Hg8 mi
3:55 am52 °FLight rain. Fog.No wind93%29.82 "Hg4 mi
2:55 am52 °FLight rain. Fog.No wind97%29.83 "Hg6 mi
1:55 am53 °FHeavy rain. Fog.No wind89%29.85 "Hg4 mi
12:55 am53 °FOvercast.3 mph89%29.88 "Hg10 mi
11:55 pm
Thu, Jan 19
54 °FOvercast.7 mph83%29.88 "Hg10 mi
11:40 pm53 °FMostly cloudy.6 mph86%29.86 "Hg10 mi
10:55 pm53 °FPassing clouds.3 mph86%29.89 "Hg10 mi
10:27 pm53 °FPassing clouds.No wind89%29.88 "Hg10 mi
10:07 pm54 °FPartly cloudy.5 mph86%29.89 "Hg10 mi
Weather by CustomWeather, © 2017

See weather overviewHow to use our weather pages